Regional Weather Roundup
Issued by NWS

Home | Current Version | Previous Version | Graphics & Text | Print | Product List | Glossary On
Versions: 1 2 3 4 5 6 7 8 9 10 11 12 13 14 15 16 17 18 19 20 21 22 23 24 25 26 27 28 29 30 31 32 33 34 35 36 37 38 39 40 41 42 43 44 45 46 47 48 49 50
000
ASUS43 KLMK 261202
RWRKY
KENTUCKY REGIONAL WEATHER ROUNDUP
NATIONAL WEATHER SERVICE LOUISVILLE KY
700 AM EST SUN FEB 26 2017

NOTE "FAIR" INDICATES FEW OR NO CLOUDS BELOW 12,000 FEET
WITH NO SIGNIFICANT WEATHER AND/OR OBSTRUCTIONS TO VISIBILITY.

KYZ001>023-026-027-061>063-070>075-261300-
WESTERN AND SOUTH CENTRAL KENTUCKY

CITY           SKY/WX    TMP DP  RH WIND       PRES   REMARKS
PADUCAH        CLEAR     28  16  60 SE7       30.19R WCI  21
HENDERSON      CLEAR     19  14  79 CALM      30.20S
OWENSBORO      CLEAR     24  19  81 SE5       30.22S WCI  18
HOPKINSVILLE   CLEAR     25  21  83 CALM      30.21R
BOWLING GREEN  CLEAR     24  19  81 CALM      30.24R
GLASGOW        NOT AVBL
$$

KYZ024-025-028>034-038-045-046-053-261300-
NORTH CENTRAL KENTUCKY

CITY           SKY/WX    TMP DP  RH WIND       PRES   REMARKS
LOUISVILLE/SDF CLEAR     27  14  58 S5        30.22R WCI  22
LOUISVILLE/LOU CLEAR     26  17  68 CALM      30.23R
FORT KNOX      CLEAR     21  17  86 CALM      30.19F
$$

KYZ035>037-039>044-047>052-055>060-089>105-261300-
NORTHEAST KENTUCKY

CITY           SKY/WX    TMP DP  RH WIND       PRES   REMARKS
LEXINGTON      CLEAR     24  16  71 W3        30.20R
COVINGTON      CLEAR     21  15  78 W5        30.16R WCI  15
FRANKFORT      CLEAR     22  15  75 SW3       30.20R
$$

KYZ054-064>069-076>088-106>120-261300-
SOUTHEAST KENTUCKY

CITY           SKY/WX    TMP DP  RH WIND       PRES   REMARKS
JACKSON        CLEAR     25  18  74 SW5       30.17R WCI  19
LONDON         CLEAR     24  19  81 CALM      30.20R
SOMERSET       CLEAR     23  23 100 CALM      30.24R
MIDDLESBORO    CLEAR     23  22  96 CALM      30.22R
MONTICELLO     SUNNY     16  14  92 CALM      30.25R
$$




USA.gov is the U.S. government's official web portal to all federal, state and local government web resources and services.